This is the latest recevied weather packets stored in our database for station/object KE8RXN. If no packets are shown the sender has not sent any weather packets the latest 10 day(s).
| Time | Temp. | Humidity | Pressure | Rain* | Wind** | Luminosity | Snow |
|---|---|---|---|---|---|---|---|
| 1778126042 | 5.56° C | 69% | 1017.2 hPa | 0 mm | - | 0 W/m² | - |
| 1778125739 | 5.56° C | 66% | 1017.3 hPa | 0 mm | - | 0 W/m² | - |
| 1778125436 | 6.11° C | 65% | 1017.2 hPa | 0 mm | - | 0 W/m² | - |
| 1778125134 | 6.67° C | 65% | 1017.3 hPa | 0 mm | - | 0 W/m² | - |
| 1778124832 | 6.67° C | 64% | 1017.2 hPa | 0 mm | - | 0 W/m² | - |
| 1778124528 | 6.67° C | 62% | 1017.3 hPa | 0 mm | - | 0 W/m² | - |
| 1778124225 | 6.67° C | 61% | 1017.2 hPa | 0 mm | - | 0 W/m² | - |
| 1778123921 | 7.22° C | 60% | 1017.3 hPa | 0 mm | - | 0 W/m² | - |
| 1778123618 | 7.22° C | 59% | 1017.4 hPa | 0 mm | - | 0 W/m² | - |
| 1778123315 | 7.22° C | 58% | 1017.3 hPa | 0 mm | - | 0 W/m² | - |
| 1778123012 | 7.22° C | 59% | 1017.3 hPa | 0 mm | - | 0 W/m² | - |
| 1778122709 | 7.78° C | 59% | 1017.2 hPa | 0 mm | - | 0 W/m² | - |
| 1778122407 | 7.78° C | 58% | 1017.4 hPa | 0 mm | - | 0 W/m² | - |
| 1778122104 | 7.78° C | 57% | 1017.3 hPa | 0 mm | - | 0 W/m² | - |
| 1778121801 | 8.33° C | 56% | 1017.2 hPa | 0 mm | - | 0 W/m² | - |
| 1778121497 | 8.33° C | 55% | 1017.3 hPa | 0 mm | - | 0 W/m² | - |
| 1778121194 | 8.33° C | 54% | 1017.3 hPa | 0 mm | - | 0 W/m² | - |
| 1778120891 | 8.33° C | 54% | 1017.2 hPa | 0 mm | - | 0 W/m² | - |
| 1778120587 | 8.33° C | 54% | 1017.2 hPa | 0 mm | - | 0 W/m² | - |
| 1778120283 | 8.33° C | 54% | 1017.3 hPa | 0 mm | - | 0 W/m² | - |
| 1778119979 | 8.33° C | 53% | 1017.2 hPa | 0 mm | - | 0 W/m² | - |
| 1778119677 | 8.33° C | 54% | 1017.1 hPa | 0 mm | - | 0 W/m² | - |
| 1778119373 | 8.33° C | 54% | 1017.1 hPa | 0 mm | - | 0 W/m² | - |
| 1778119071 | 8.33° C | 53% | 1017 hPa | 0 mm | - | 0 W/m² | - |
| 1778118768 | 8.89° C | 55% | 1016.9 hPa | 0 mm | - | 0 W/m² | - |
* Rain latest hour (hover to see other rain measurements)
** Current wind speed in m/s (hover to see current wind gust speed)